Regional Weather Roundup
Issued by NWS

Home | Current Version | Previous Version | Graphics & Text | Print | Product List | Glossary On
Versions: 1 2 3 4 5 6 7 8 9 10 11 12 13 14 15 16 17 18 19 20 21 22 23 24 25 26 27 28 29 30 31 32 33 34 35 36 37 38 39 40 41 42 43 44 45 46 47 48 49 50
000
ASUS43 KOAX 212210
RWRNE

WEATHER ROUNDUP FOR NEBRASKA
NATIONAL WEATHER SERVICE OMAHA NE
400 PM CST TUE FEB 21 2017

NOTES: SATELLITE DATA IS BEING USED TO AUGMENT CLOUD COVER ABOVE
       12000 FEET.
       "FAIR" INDICATES FEW OR NO CLOUDS BELOW 12,000 FEET WITH NO
       SIGNIFICANT WEATHER AND/OR OBSTRUCTIONS TO VISIBILITY.

  * THESE STATIONS DO NOT REPORT WEATHER SUCH AS RAIN...SNOW OR FOG.

NEZ001>004-019>022-054>056-212300-
NEBRASKA PANHANDLE

CITY           SKY/WX    TMP DP  RH WIND       PRES   REMARKS
SCOTTSBLUFF    SUNNY     72  18  13 W32G46    29.83S
ALLIANCE       SUNNY     71  20  14 W35G44    29.82F
CHADRON        SUNNY     71  27  19 W29G39    29.77F
KIMBALL        SUNNY     70  26  19 W32G45    29.92S
SIDNEY         SUNNY     73  15  11 NW26G37   29.91S
$$

NEZ057>060-069>072-079>082-212300-
SOUTHWEST NEBRASKA

CITY           SKY/WX    TMP DP  RH WIND       PRES   REMARKS
NORTH PLATTE   SUNNY     79  26  14 W9        29.82F
IMPERIAL       SUNNY     77  15   9 W17G30    29.86F
LEXINGTON      SUNNY     78  27  15 W12       29.84F
MCCOOK         SUNNY     80  26  13 NW14G20   29.85F
OGALLALA       SUNNY     78  20  11 W22G31    29.84S
$$

NEZ005>010-023>029-035>040-094-212300-
NORTH CENTRAL NEBRASKA

CITY           SKY/WX    TMP DP  RH WIND       PRES   REMARKS
VALENTINE      SUNNY     74  29  19 W21G31    29.73F
AINSWORTH      SUNNY     74  34  23 W20G29    29.76F
BROKEN BOW     SUNNY     77  31  18 W17G24    29.81F
O`NEILL        SUNNY     76  32  19 W22G29    29.74F
ORD            SUNNY     78  27  15 W18G28    29.77F
THEDFORD       SUNNY     76  30  18 W21G29    29.79F
$$

NEZ041-046>049-061>064-073>077-083>087-212300-
SOUTH CENTRAL NEBRASKA

CITY           SKY/WX    TMP DP  RH WIND       PRES   REMARKS
GRAND ISLAND   SUNNY     77  30  17 SW13      29.81F
AURORA         SUNNY     76  27  16 SW15      29.82F
HASTINGS       SUNNY     77  28  16 W18G24    29.84F
HEBRON         SUNNY     75  25  15 W17       29.85F
HOLDREGE       SUNNY     77  26  14 W14       29.84F
KEARNEY *      SUNNY     77  28  16 W15       29.83F
YORK           SUNNY     73  27  17 SW17G25   29.83F
$$

NEZ011>018-030>034-042>045-212300-
NORTHEAST NEBRASKA

CITY           SKY/WX    TMP DP  RH WIND       PRES   REMARKS
NORFOLK        SUNNY     74  28  18 SW21G28   29.75F
ALBION         SUNNY     78  26  15 W10       29.77F
BLAIR          SUNNY     72  35  26 S17G23    29.82F
FREMONT        SUNNY     74  31  20 SW17      29.82F
TEKAMAH        SUNNY     72  37  28 S21       29.80F
WAYNE          SUNNY     73  33  23 S16G23    29.76F
$$

NEZ050>053-065>068-078-088>093-212300-
SOUTHEAST NEBRASKA

CITY           SKY/WX    TMP DP  RH WIND       PRES   REMARKS
LINCOLN        SUNNY     76  28  17 SW16      29.84F
OMAHA EPPLEY   SUNNY     71  36  27 S15       29.83F
BEATRICE       SUNNY     74  31  20 SW16      29.87F
FALLS CITY     SUNNY     69  35  28 SW7       29.90S
NEBRASKA CITY  SUNNY     69  24  18 S12       29.87F
PLATTSMOUTH    SUNNY     71  29  21 S13       29.86F
$$

NEZ044-045-051>053-067-212300-
OMAHA AREA

CITY           SKY/WX    TMP DP  RH WIND       PRES   REMARKS
OMAHA EPPLEY   SUNNY     71  36  27 S15       29.83F
BLAIR          SUNNY     72  35  26 S17G23    29.82F
FREMONT        SUNNY     74  31  20 SW17      29.82F
MILLARD        SUNNY     75  34  22 SW10G18   29.83F
OFFUTT AFB     SUNNY     71  38  30 S12       29.84F
PLATTSMOUTH    SUNNY     71  29  21 S13       29.86F
WAHOO          FAIR      74  29  18 SW14G21   29.82F
$$




USA.gov is the U.S. government's official web portal to all federal, state and local government web resources and services.